Time,TemperatureF,DewpointF,PressureIn,WindDirection,WindDirectionDegrees,WindSpeedMPH,WindSpeedGustMPH,Humidity,HourlyPrecipIn,Conditions,Clouds,dailyrainin,SoftwareType,DateUTC
2013-07-09 00:01:00,71.8,70.3,30.08,NW,318,0.0,2.0,95,0.00,,---,0.00,VWS V14.01,2013-07-09 04:01:00,
2013-07-09 00:06:00,71.6,70.1,30.07,WNW,303,0.0,0.0,95,0.00,,---,0.00,VWS V14.01,2013-07-09 04:06:00,
2013-07-09 00:11:00,71.5,70.0,30.07,WNW,303,0.0,0.0,95,0.00,,---,0.00,VWS V14.01,2013-07-09 04:11:00,
2013-07-09 00:16:00,71.3,69.8,30.07,WNW,299,2.0,4.0,95,0.00,,---,0.00,VWS V14.01,2013-07-09 04:16:00,
2013-07-09 00:21:00,71.2,69.7,30.07,WNW,300,1.0,4.0,95,0.00,,---,0.00,VWS V14.01,2013-07-09 04:21:00,
2013-07-09 00:26:00,71.1,69.6,30.07,NW,306,0.0,4.0,95,0.00,,---,0.00,VWS V14.01,2013-07-09 04:26:00,
2013-07-09 00:31:00,71.1,69.6,30.07,West,272,0.0,4.0,95,0.00,,---,0.00,VWS V14.01,2013-07-09 04:31:00,
2013-07-09 00:36:00,71.0,69.5,30.07,West,262,0.0,1.0,95,0.00,,---,0.00,VWS V14.01,2013-07-09 04:36:00,
2013-07-09 00:41:00,71.0,69.5,30.08,West,279,0.0,2.0,95,0.00,,---,0.00,VWS V14.01,2013-07-09 04:41:00,
2013-07-09 00:46:00,70.9,69.4,30.07,West,279,0.0,2.0,95,0.00,,---,0.00,VWS V14.01,2013-07-09 04:46:00,
2013-07-09 00:51:00,70.9,69.4,30.07,West,279,0.0,2.0,95,0.00,,---,0.00,VWS V14.01,2013-07-09 04:51:00,
2013-07-09 00:56:00,70.8,69.3,30.07,West,279,0.0,2.0,95,0.00,,---,0.00,VWS V14.01,2013-07-09 04:56:00,
2013-07-09 01:01:00,70.7,69.2,30.07,WNW,289,0.0,2.0,95,0.00,,---,0.00,VWS V14.01,2013-07-09 05:01:00,
2013-07-09 01:06:00,70.8,69.3,30.07,West,267,0.0,0.0,95,0.00,,---,0.00,VWS V14.01,2013-07-09 05:06:00,
2013-07-09 01:11:00,70.9,69.4,30.07,West,267,0.0,0.0,95,0.00,,---,0.00,VWS V14.01,2013-07-09 05:11:00,
2013-07-09 01:16:00,71.0,69.5,30.07,WSW,248,0.0,0.0,95,0.00,,---,0.00,VWS V14.01,2013-07-09 05:16:00,
2013-07-09 01:21:00,71.1,69.6,30.07,SSW,193,2.0,3.0,95,0.00,,---,0.00,VWS V14.01,2013-07-09 05:21:00,
2013-07-09 01:26:00,71.1,69.6,30.07,SSE,156,4.0,5.0,95,0.00,,---,0.00,VWS V14.01,2013-07-09 05:26:00,
2013-07-09 01:31:00,71.2,69.4,30.07,South,182,0.0,5.0,94,0.00,,---,0.00,VWS V14.01,2013-07-09 05:31:00,
2013-07-09 01:36:00,71.3,69.5,30.07,South,182,0.0,2.0,94,0.00,,---,0.00,VWS V14.01,2013-07-09 05:36:00,
2013-07-09 01:41:00,71.3,69.5,30.07,SSW,195,0.0,2.0,94,0.00,,---,0.00,VWS V14.01,2013-07-09 05:41:00,
2013-07-09 01:46:00,71.4,69.6,30.06,SSW,194,0.0,2.0,94,0.00,,---,0.00,VWS V14.01,2013-07-09 05:46:00,
2013-07-09 01:51:00,71.4,69.6,30.06,SSW,202,0.0,2.0,94,0.00,,---,0.00,VWS V14.01,2013-07-09 05:51:00,
2013-07-09 01:56:00,71.4,69.6,30.06,West,281,0.0,2.0,94,0.00,,---,0.00,VWS V14.01,2013-07-09 05:56:00,
2013-07-09 02:01:00,71.3,69.5,30.06,SW,217,1.0,2.0,94,0.00,,---,0.00,VWS V14.01,2013-07-09 06:01:00,
2013-07-09 02:06:00,71.4,69.6,30.06,WNW,287,1.0,1.0,94,0.00,,---,0.00,VWS V14.01,2013-07-09 06:06:00,
2013-07-09 02:11:00,71.3,69.5,30.06,WNW,287,0.0,1.0,94,0.00,,---,0.00,VWS V14.01,2013-07-09 06:11:00,
2013-07-09 02:16:00,71.3,69.5,30.06,WNW,287,0.0,1.0,94,0.00,,---,0.00,VWS V14.01,2013-07-09 06:16:00,
2013-07-09 02:21:00,71.2,69.4,30.06,WNW,287,0.0,1.0,94,0.00,,---,0.00,VWS V14.01,2013-07-09 06:21:00,
2013-07-09 02:26:00,71.1,69.3,30.06,WNW,288,0.0,1.0,94,0.00,,---,0.00,VWS V14.01,2013-07-09 06:26:00,
2013-07-09 02:31:00,70.9,69.1,30.06,WNW,288,0.0,1.0,94,0.00,,---,0.00,VWS V14.01,2013-07-09 06:31:00,
2013-07-09 02:36:00,70.8,69.0,30.06,WNW,288,0.0,0.0,94,0.00,,---,0.00,VWS V14.01,2013-07-09 06:36:00,
2013-07-09 02:41:00,70.8,69.3,30.06,WNW,288,0.0,0.0,95,0.00,,---,0.00,VWS V14.01,2013-07-09 06:41:00,
2013-07-09 02:46:00,70.7,68.9,30.05,WNW,288,0.0,0.0,94,0.00,,---,0.00,VWS V14.01,2013-07-09 06:46:00,
2013-07-09 02:51:00,70.6,68.8,30.05,WNW,288,0.0,0.0,94,0.00,,---,0.00,VWS V14.01,2013-07-09 06:51:00,
2013-07-09 02:56:00,70.5,69.0,30.05,WNW,288,0.0,0.0,95,0.00,,---,0.00,VWS V14.01,2013-07-09 06:56:00,
2013-07-09 03:01:00,70.4,68.9,30.05,WNW,288,0.0,0.0,95,0.00,,---,0.00,VWS V14.01,2013-07-09 07:01:00,
2013-07-09 03:06:00,70.4,68.9,30.06,WNW,288,0.0,0.0,95,0.00,,---,0.00,VWS V14.01,2013-07-09 07:06:00,
2013-07-09 03:11:00,70.4,68.9,30.06,WNW,288,0.0,0.0,95,0.00,,---,0.00,VWS V14.01,2013-07-09 07:11:00,
2013-07-09 03:16:00,70.3,68.8,30.06,WNW,288,0.0,0.0,95,0.00,,---,0.00,VWS V14.01,2013-07-09 07:16:00,
2013-07-09 03:21:00,70.2,68.7,30.06,WNW,288,0.0,0.0,95,0.00,,---,0.00,VWS V14.01,2013-07-09 07:21:00,
2013-07-09 03:26:00,70.2,68.7,30.05,WNW,287,0.0,0.0,95,0.00,,---,0.00,VWS V14.01,2013-07-09 07:26:00,
2013-07-09 03:31:00,70.2,68.7,30.05,SSW,208,0.0,0.0,95,0.00,,---,0.00,VWS V14.01,2013-07-09 07:31:00,
2013-07-09 03:36:00,70.3,68.8,30.05,SSW,208,0.0,0.0,95,0.00,,---,0.00,VWS V14.01,2013-07-09 07:36:00,
2013-07-09 03:41:00,70.4,68.6,30.05,South,186,0.0,2.0,94,0.00,,---,0.00,VWS V14.01,2013-07-09 07:41:00,
2013-07-09 03:46:00,70.7,68.9,30.05,SSW,202,1.0,2.0,94,0.00,,---,0.00,VWS V14.01,2013-07-09 07:46:00,
2013-07-09 03:52:00,71.0,69.2,30.05,SW,219,0.0,2.0,94,0.00,,---,0.00,VWS V14.01,2013-07-09 07:52:00,
2013-07-09 03:57:00,71.0,69.2,30.05,SW,219,0.0,2.0,94,0.00,,---,0.00,VWS V14.01,2013-07-09 07:57:00,
2013-07-09 04:02:00,71.1,69.3,30.05,West,265,0.0,2.0,94,0.00,,---,0.00,VWS V14.01,2013-07-09 08:02:00,
2013-07-09 04:07:00,71.0,69.2,30.05,West,274,1.0,2.0,94,0.00,,---,0.00,VWS V14.01,2013-07-09 08:07:00,
2013-07-09 04:12:00,70.8,69.0,30.05,WNW,296,0.0,2.0,94,0.00,,---,0.00,VWS V14.01,2013-07-09 08:12:00,
2013-07-09 04:17:00,70.6,68.8,30.05,WNW,296,0.0,2.0,94,0.00,,---,0.00,VWS V14.01,2013-07-09 08:17:00,
2013-07-09 04:22:00,70.4,68.6,30.05,WNW,296,0.0,2.0,94,0.00,,---,0.00,VWS V14.01,2013-07-09 08:22:00,
2013-07-09 04:27:00,70.3,68.8,30.06,WNW,296,0.0,2.0,95,0.00,,---,0.00,VWS V14.01,2013-07-09 08:27:00,
2013-07-09 04:32:00,70.2,68.7,30.06,WNW,296,0.0,2.0,95,0.00,,---,0.00,VWS V14.01,2013-07-09 08:32:00,
2013-07-09 04:37:00,70.1,68.3,30.06,WNW,296,0.0,0.0,94,0.00,,---,0.00,VWS V14.01,2013-07-09 08:37:00,
2013-07-09 04:42:00,70.0,68.5,30.06,WNW,296,0.0,0.0,95,0.00,,---,0.00,VWS V14.01,2013-07-09 08:42:00,
2013-07-09 04:47:00,69.9,68.4,30.06,WNW,296,0.0,1.0,95,0.00,,---,0.00,VWS V14.01,2013-07-09 08:47:00,
2013-07-09 04:52:00,69.8,68.3,30.06,NNW,333,0.0,3.0,95,0.00,,---,0.00,VWS V14.01,2013-07-09 08:52:00,
2013-07-09 04:57:00,69.7,68.2,30.06,NNW,331,0.0,3.0,95,0.00,,---,0.00,VWS V14.01,2013-07-09 08:57:00,
2013-07-09 05:02:00,69.7,68.2,30.06,NNW,329,0.0,3.0,95,0.00,,---,0.00,VWS V14.01,2013-07-09 09:02:00,
2013-07-09 05:07:00,69.6,68.1,30.06,NNW,329,0.0,0.0,95,0.00,,---,0.00,VWS V14.01,2013-07-09 09:07:00,
2013-07-09 05:12:00,69.6,68.1,30.06,NNW,329,0.0,0.0,95,0.00,,---,0.00,VWS V14.01,2013-07-09 09:12:00,
2013-07-09 05:17:00,69.6,68.1,30.06,NNW,329,0.0,0.0,95,0.00,,---,0.00,VWS V14.01,2013-07-09 09:17:00,
2013-07-09 05:22:00,69.6,68.1,30.06,NNW,329,0.0,0.0,95,0.00,,---,0.00,VWS V14.01,2013-07-09 09:22:00,
2013-07-09 05:27:00,69.7,68.2,30.06,NNW,329,0.0,0.0,95,0.00,,---,0.00,VWS V14.01,2013-07-09 09:27:00,
2013-07-09 05:32:00,69.8,68.3,30.06,NNW,329,0.0,0.0,95,0.00,,---,0.00,VWS V14.01,2013-07-09 09:32:00,
2013-07-09 05:37:00,69.8,68.3,30.06,NNW,329,0.0,0.0,95,0.00,,---,0.00,VWS V14.01,2013-07-09 09:37:00,
2013-07-09 05:42:00,69.8,68.3,30.07,NNW,329,0.0,0.0,95,0.00,,---,0.00,VWS V14.01,2013-07-09 09:42:00,
2013-07-09 05:47:00,69.8,68.3,30.06,NNW,329,0.0,0.0,95,0.00,,---,0.00,VWS V14.01,2013-07-09 09:47:00,
2013-07-09 05:52:00,69.8,68.3,30.06,NNW,329,0.0,0.0,95,0.00,,---,0.00,VWS V14.01,2013-07-09 09:52:00,
2013-07-09 05:57:00,69.7,68.2,30.07,NNW,329,0.0,0.0,95,0.00,,---,0.00,VWS V14.01,2013-07-09 09:57:00,
2013-07-09 06:02:00,69.6,68.1,30.07,NNW,329,0.0,0.0,95,0.00,,---,0.00,VWS V14.01,2013-07-09 10:02:00,
2013-07-09 06:07:00,69.5,68.0,30.07,NNW,329,0.0,0.0,95,0.00,,---,0.00,VWS V14.01,2013-07-09 10:07:00,
2013-07-09 06:12:00,69.4,67.9,30.06,NNW,329,0.0,0.0,95,0.00,,---,0.00,VWS V14.01,2013-07-09 10:12:00,
2013-07-09 06:17:00,69.4,67.9,30.07,NNW,329,0.0,0.0,95,0.00,,---,0.00,VWS V14.01,2013-07-09 10:17:00,
2013-07-09 06:22:00,69.3,67.8,30.06,NNW,329,0.0,0.0,95,0.00,,---,0.00,VWS V14.01,2013-07-09 10:22:00,
2013-07-09 06:27:00,69.3,67.8,30.06,NNW,329,0.0,0.0,95,0.00,,---,0.00,VWS V14.01,2013-07-09 10:27:00,
2013-07-09 06:32:00,69.2,67.7,30.06,NNW,329,0.0,0.0,95,0.00,,---,0.00,VWS V14.01,2013-07-09 10:32:00,
2013-07-09 06:37:00,69.2,68.0,30.06,NW,308,2.0,3.0,96,0.00,,---,0.00,VWS V14.01,2013-07-09 10:37:00,
2013-07-09 06:42:00,69.2,68.0,30.06,NNW,330,1.0,3.0,96,0.00,,---,0.00,VWS V14.01,2013-07-09 10:42:00,
2013-07-09 06:47:00,69.1,67.9,30.06,NNW,340,0.0,4.0,96,0.00,,---,0.00,VWS V14.01,2013-07-09 10:47:00,
2013-07-09 06:52:00,69.1,67.9,30.06,NNW,335,0.0,4.0,96,0.00,,---,0.00,VWS V14.01,2013-07-09 10:52:00,
2013-07-09 06:57:00,69.1,67.9,30.06,NNW,335,0.0,4.0,96,0.00,,---,0.00,VWS V14.01,2013-07-09 10:57:00,
2013-07-09 07:02:00,69.2,68.0,30.06,NNW,335,0.0,4.0,96,0.00,,---,0.00,VWS V14.01,2013-07-09 11:02:00,
2013-07-09 07:07:00,69.2,68.0,30.07,NNW,331,0.0,1.0,96,0.00,,---,0.00,VWS V14.01,2013-07-09 11:07:00,
2013-07-09 07:12:00,69.2,68.0,30.07,NNW,331,0.0,1.0,96,0.00,,---,0.00,VWS V14.01,2013-07-09 11:12:00,
2013-07-09 07:17:00,69.3,68.1,30.06,NNW,331,0.0,1.0,96,0.00,,---,0.00,VWS V14.01,2013-07-09 11:17:00,
2013-07-09 07:22:00,69.4,68.2,30.06,NNW,331,0.0,1.0,96,0.00,,---,0.00,VWS V14.01,2013-07-09 11:22:00,
2013-07-09 07:27:00,69.5,68.3,30.07,NNW,331,0.0,1.0,96,0.00,,---,0.00,VWS V14.01,2013-07-09 11:27:00,
2013-07-09 07:32:00,69.6,68.4,30.06,NW,305,1.0,1.0,96,0.00,,---,0.00,VWS V14.01,2013-07-09 11:32:00,
2013-07-09 07:37:00,69.7,68.5,30.06,NW,305,0.0,2.0,96,0.00,,---,0.00,VWS V14.01,2013-07-09 11:37:00,
2013-07-09 07:42:00,69.8,68.6,30.06,NW,305,0.0,2.0,96,0.00,,---,0.00,VWS V14.01,2013-07-09 11:42:00,
2013-07-09 07:47:00,69.9,68.7,30.06,NW,305,0.0,2.0,96,0.00,,---,0.00,VWS V14.01,2013-07-09 11:47:00,
2013-07-09 07:52:00,70.1,68.9,30.06,NW,305,0.0,2.0,96,0.00,,---,0.00,VWS V14.01,2013-07-09 11:52:00,
2013-07-09 07:57:00,70.3,69.1,30.06,WNW,294,0.0,2.0,96,0.00,,---,0.00,VWS V14.01,2013-07-09 11:57:00,
2013-07-09 08:02:00,70.5,69.3,30.06,WNW,294,0.0,2.0,96,0.00,,---,0.00,VWS V14.01,2013-07-09 12:02:00,
2013-07-09 08:07:00,70.7,69.5,30.06,WNW,294,0.0,0.0,96,0.00,,---,0.00,VWS V14.01,2013-07-09 12:07:00,
2013-07-09 08:12:00,70.9,69.7,30.06,WNW,294,0.0,0.0,96,0.00,,---,0.00,VWS V14.01,2013-07-09 12:12:00,
2013-07-09 08:17:00,71.1,69.9,30.06,WNW,294,0.0,0.0,96,0.00,,---,0.00,VWS V14.01,2013-07-09 12:17:00,
2013-07-09 08:22:00,71.3,70.1,30.07,WNW,294,0.0,0.0,96,0.00,,---,0.00,VWS V14.01,2013-07-09 12:22:00,
2013-07-09 08:27:00,71.6,70.1,30.07,WNW,294,0.0,0.0,95,0.00,,---,0.00,VWS V14.01,2013-07-09 12:27:00,
2013-07-09 08:32:00,71.7,70.2,30.07,WNW,294,0.0,0.0,95,0.00,,---,0.00,VWS V14.01,2013-07-09 12:32:00,
2013-07-09 08:37:00,72.0,70.5,30.07,WNW,294,0.0,0.0,95,0.00,,---,0.00,VWS V14.01,2013-07-09 12:37:00,
2013-07-09 08:42:00,72.3,70.5,30.07,WNW,294,0.0,0.0,94,0.00,,---,0.00,VWS V14.01,2013-07-09 12:42:00,
2013-07-09 08:47:00,72.6,70.8,30.07,WNW,294,0.0,0.0,94,0.00,,---,0.00,VWS V14.01,2013-07-09 12:47:00,
2013-07-09 08:52:00,73.0,70.9,30.07,WNW,294,0.0,0.0,93,0.00,,---,0.00,VWS V14.01,2013-07-09 12:52:00,
2013-07-09 08:57:00,73.2,70.4,30.07,WNW,294,0.0,0.0,91,0.00,,---,0.00,VWS V14.01,2013-07-09 12:57:00,
2013-07-09 09:02:00,73.5,70.7,30.07,WNW,294,0.0,0.0,91,0.00,,---,0.00,VWS V14.01,2013-07-09 13:02:00,
2013-07-09 09:07:00,73.9,71.1,30.08,WNW,293,0.0,0.0,91,0.00,,---,0.00,VWS V14.01,2013-07-09 13:07:00,
2013-07-09 09:12:00,74.3,70.8,30.08,WNW,293,0.0,0.0,89,0.00,,---,0.00,VWS V14.01,2013-07-09 13:12:00,
2013-07-09 09:17:00,74.7,71.6,30.08,WNW,293,0.0,0.0,90,0.00,,---,0.00,VWS V14.01,2013-07-09 13:17:00,
2013-07-09 09:22:00,75.1,71.6,30.08,WNW,293,0.0,0.0,89,0.00,,---,0.00,VWS V14.01,2013-07-09 13:22:00,
2013-07-09 09:27:00,75.3,71.8,30.08,WNW,292,0.0,0.0,89,0.00,,---,0.00,VWS V14.01,2013-07-09 13:27:00,
2013-07-09 09:32:00,75.6,72.5,30.08,ESE,109,0.0,1.0,90,0.00,,---,0.00,VWS V14.01,2013-07-09 13:32:00,
2013-07-09 09:37:00,75.9,72.8,30.08,ESE,108,0.0,1.0,90,0.00,,---,0.00,VWS V14.01,2013-07-09 13:37:00,
2013-07-09 09:42:00,76.2,72.4,30.08,ESE,108,0.0,1.0,88,0.00,,---,0.00,VWS V14.01,2013-07-09 13:42:00,
2013-07-09 09:47:00,76.4,72.2,30.08,ESE,108,0.0,1.0,87,0.00,,---,0.00,VWS V14.01,2013-07-09 13:47:00,
2013-07-09 09:52:00,76.5,72.0,30.08,ESE,108,0.0,1.0,86,0.00,,---,0.00,VWS V14.01,2013-07-09 13:52:00,
2013-07-09 09:57:00,76.7,71.5,30.08,ESE,108,0.0,1.0,84,0.00,,---,0.00,VWS V14.01,2013-07-09 13:57:00,
2013-07-09 10:02:00,77.0,72.2,30.08,ESE,108,0.0,1.0,85,0.00,,---,0.00,VWS V14.01,2013-07-09 14:02:00,
2013-07-09 10:07:00,77.3,72.1,30.08,ESE,108,0.0,0.0,84,0.00,,---,0.00,VWS V14.01,2013-07-09 14:07:00,
2013-07-09 10:12:00,77.6,72.7,30.08,ESE,108,0.0,0.0,85,0.00,,---,0.00,VWS V14.01,2013-07-09 14:12:00,
2013-07-09 10:17:00,77.9,72.7,30.08,ESE,108,0.0,0.0,84,0.00,,---,0.00,VWS V14.01,2013-07-09 14:17:00,
2013-07-09 10:22:00,78.0,72.4,30.08,ESE,113,0.0,0.0,83,0.00,,---,0.00,VWS V14.01,2013-07-09 14:22:00,
2013-07-09 10:27:00,78.1,73.2,30.08,ESE,118,0.0,0.0,85,0.00,,---,0.00,VWS V14.01,2013-07-09 14:27:00,
2013-07-09 10:32:00,78.4,72.4,30.08,ESE,120,0.0,0.0,82,0.00,,---,0.00,VWS V14.01,2013-07-09 14:32:00,
2013-07-09 10:37:00,79.0,72.7,30.08,NE,52,0.0,3.0,81,0.00,,---,0.00,VWS V14.01,2013-07-09 14:37:00,
2013-07-09 10:42:00,79.7,73.4,30.07,South,169,0.0,3.0,81,0.00,,---,0.00,VWS V14.01,2013-07-09 14:42:00,
2013-07-09 10:47:00,80.4,73.3,30.07,SE,125,1.0,3.0,79,0.00,,---,0.00,VWS V14.01,2013-07-09 14:47:00,
2013-07-09 10:52:00,80.7,73.6,30.07,ESE,102,0.0,3.0,79,0.00,,---,0.00,VWS V14.01,2013-07-09 14:52:00,
2013-07-09 10:57:00,80.7,73.6,30.07,SE,136,2.0,5.0,79,0.00,,---,0.00,VWS V14.01,2013-07-09 14:57:00,
2013-07-09 11:03:00,80.6,73.5,30.08,ESE,123,0.0,0.0,79,0.00,,---,0.00,VWS V14.01,2013-07-09 15:03:00,
2013-07-09 11:08:00,80.4,72.9,30.08,SSW,196,0.0,4.0,78,0.00,,---,0.00,VWS V14.01,2013-07-09 15:08:00,
2013-07-09 11:13:00,80.6,73.5,30.07,South,179,0.0,4.0,79,0.00,,---,0.00,VWS V14.01,2013-07-09 15:13:00,
2013-07-09 11:18:00,80.9,72.6,30.08,South,179,0.0,4.0,76,0.00,,---,0.00,VWS V14.01,2013-07-09 15:18:00,
2013-07-09 11:23:00,81.4,73.5,30.08,ENE,62,0.0,4.0,77,0.00,,---,0.00,VWS V14.01,2013-07-09 15:23:00,
2013-07-09 11:28:00,81.8,73.1,30.08,East,93,0.0,4.0,75,0.00,,---,0.00,VWS V14.01,2013-07-09 15:28:00,
2013-07-09 11:33:00,82.2,73.1,30.08,North,350,2.0,2.0,74,0.00,,---,0.00,VWS V14.01,2013-07-09 15:33:00,
2013-07-09 11:38:00,82.2,73.5,30.08,NNE,26,0.0,4.0,75,0.00,,---,0.00,VWS V14.01,2013-07-09 15:38:00,
2013-07-09 11:39:00,82.2,73.5,30.08,NNE,26,0.0,4.0,75,0.00,,---,0.00,VWS V14.01,2013-07-09 15:39:00,
2013-07-09 11:44:00,82.4,73.3,30.08,NNE,21,0.0,4.0,74,0.00,,---,0.00,VWS V14.01,2013-07-09 15:44:00,
2013-07-09 11:49:00,82.8,71.6,30.08,ESE,108,1.0,4.0,69,0.00,,---,0.00,VWS V14.01,2013-07-09 15:49:00,
2013-07-09 11:54:00,83.1,71.0,30.08,East,90,0.0,4.0,67,0.00,,---,0.00,VWS V14.01,2013-07-09 15:54:00,
2013-07-09 11:58:00,83.6,73.2,30.08,ENE,64,0.0,4.0,71,0.00,,---,0.00,VWS V14.01,2013-07-09 15:58:00,
2013-07-09 12:03:00,84.0,72.7,30.08,SSW,208,0.0,0.0,69,0.00,,---,0.00,VWS V14.01,2013-07-09 16:03:00,
2013-07-09 12:08:00,84.3,73.9,30.08,East,83,4.0,5.0,71,0.00,,---,0.00,VWS V14.01,2013-07-09 16:08:00,
2013-07-09 12:13:00,84.5,74.9,30.08,East,91,0.0,5.0,73,0.00,,---,0.00,VWS V14.01,2013-07-09 16:13:00,
2013-07-09 12:18:00,84.5,75.3,30.08,ENE,68,0.0,5.0,74,0.00,,---,0.00,VWS V14.01,2013-07-09 16:18:00,
2013-07-09 12:23:00,84.4,73.1,30.08,ESE,114,0.0,5.0,69,0.00,,---,0.00,VWS V14.01,2013-07-09 16:23:00,
2013-07-09 12:28:00,84.0,73.2,30.08,East,92,0.0,5.0,70,0.00,,---,0.00,VWS V14.01,2013-07-09 16:28:00,
2013-07-09 12:33:00,83.7,72.9,30.08,East,91,0.0,1.0,70,0.00,,---,0.00,VWS V14.01,2013-07-09 16:33:00,
2013-07-09 12:38:00,83.4,73.0,30.08,East,89,0.0,1.0,71,0.00,,---,0.00,VWS V14.01,2013-07-09 16:38:00,
2013-07-09 12:43:00,83.4,73.4,30.08,East,91,0.0,1.0,72,0.00,,---,0.00,VWS V14.01,2013-07-09 16:43:00,
2013-07-09 12:48:00,83.3,72.5,30.08,East,91,1.0,1.0,70,0.00,,---,0.00,VWS V14.01,2013-07-09 16:48:00,
2013-07-09 12:53:00,83.1,72.7,30.08,East,91,0.0,1.0,71,0.00,,---,0.00,VWS V14.01,2013-07-09 16:53:00,
2013-07-09 12:58:00,82.9,72.5,30.08,East,91,0.0,1.0,71,0.00,,---,0.00,VWS V14.01,2013-07-09 16:58:00,
2013-07-09 13:03:00,82.9,73.4,30.08,East,91,0.0,0.0,73,0.00,,---,0.00,VWS V14.01,2013-07-09 17:03:00,
2013-07-09 13:08:00,82.9,72.1,30.07,East,92,0.0,0.0,70,0.00,,---,0.00,VWS V14.01,2013-07-09 17:08:00,
2013-07-09 13:13:00,82.9,72.9,30.07,SE,124,0.0,2.0,72,0.00,,---,0.00,VWS V14.01,2013-07-09 17:13:00,
2013-07-09 13:18:00,83.0,72.2,30.07,SE,127,2.0,2.0,70,0.00,,---,0.00,VWS V14.01,2013-07-09 17:18:00,
2013-07-09 13:23:00,83.1,72.7,30.07,ESE,120,0.0,2.0,71,0.00,,---,0.00,VWS V14.01,2013-07-09 17:23:00,
2013-07-09 13:28:00,83.2,72.0,30.07,ESE,119,0.0,2.0,69,0.00,,---,0.00,VWS V14.01,2013-07-09 17:28:00,
2013-07-09 13:33:00,83.5,71.4,30.07,East,97,0.0,1.0,67,0.00,,---,0.00,VWS V14.01,2013-07-09 17:33:00,
2013-07-09 13:38:00,84.0,72.3,30.06,East,91,0.0,1.0,68,0.00,,---,0.00,VWS V14.01,2013-07-09 17:38:00,
2013-07-09 13:43:00,84.6,72.4,30.06,ESE,121,2.0,2.0,67,0.00,,---,0.00,VWS V14.01,2013-07-09 17:43:00,
2013-07-09 13:48:00,84.9,72.3,30.06,NW,322,0.0,4.0,66,0.00,,---,0.00,VWS V14.01,2013-07-09 17:48:00,
2013-07-09 13:53:00,85.1,71.6,30.06,SE,140,0.0,4.0,64,0.00,,---,0.00,VWS V14.01,2013-07-09 17:53:00,
2013-07-09 13:58:00,85.0,71.9,30.05,South,183,0.0,4.0,65,0.00,,---,0.00,VWS V14.01,2013-07-09 17:58:00,
2013-07-09 14:03:00,85.0,71.5,30.05,ENE,77,0.0,0.0,64,0.00,,---,0.00,VWS V14.01,2013-07-09 18:03:00,
2013-07-09 14:08:00,85.3,73.1,30.05,ESE,119,1.0,2.0,67,0.00,,---,0.00,VWS V14.01,2013-07-09 18:08:00,
2013-07-09 14:13:00,85.4,71.4,30.05,South,179,3.0,4.0,63,0.00,,---,0.00,VWS V14.01,2013-07-09 18:13:00,
2013-07-09 14:18:00,85.6,72.9,30.05,WSW,253,0.0,4.0,66,0.00,,---,0.00,VWS V14.01,2013-07-09 18:18:00,
2013-07-09 14:23:00,85.6,71.6,30.05,SE,138,0.0,4.0,63,0.00,,---,0.00,VWS V14.01,2013-07-09 18:23:00,
2013-07-09 14:28:00,85.4,70.4,30.04,ESE,120,0.0,4.0,61,0.00,,---,0.00,VWS V14.01,2013-07-09 18:28:00,
2013-07-09 14:33:00,85.6,70.1,30.04,West,263,0.0,0.0,60,0.00,,---,0.00,VWS V14.01,2013-07-09 18:33:00,
2013-07-09 14:38:00,85.9,70.4,30.04,NNW,329,0.0,3.0,60,0.00,,---,0.00,VWS V14.01,2013-07-09 18:38:00,
2013-07-09 14:43:00,86.3,72.2,30.04,SSW,194,0.0,4.0,63,0.00,,---,0.00,VWS V14.01,2013-07-09 18:43:00,
2013-07-09 14:48:00,86.7,71.7,30.03,North,350,0.0,4.0,61,0.00,,---,0.00,VWS V14.01,2013-07-09 18:48:00,
2013-07-09 14:53:00,87.0,71.9,30.03,SW,223,0.0,4.0,61,0.00,,---,0.00,VWS V14.01,2013-07-09 18:53:00,
2013-07-09 14:58:00,87.3,69.7,30.03,WSW,255,0.0,4.0,56,0.00,,---,0.00,VWS V14.01,2013-07-09 18:58:00,
2013-07-09 15:03:00,87.4,71.3,30.03,WNW,302,0.0,0.0,59,0.00,,---,0.00,VWS V14.01,2013-07-09 19:03:00,
2013-07-09 15:08:00,87.4,73.3,30.03,NE,36,2.0,2.0,63,0.00,,---,0.00,VWS V14.01,2013-07-09 19:08:00,
2013-07-09 15:13:00,87.0,70.9,30.03,ENE,69,0.0,3.0,59,0.00,,---,0.00,VWS V14.01,2013-07-09 19:13:00,
2013-07-09 15:18:00,86.9,71.3,30.03,ENE,72,0.0,3.0,60,0.00,,---,0.00,VWS V14.01,2013-07-09 19:18:00,
2013-07-09 15:23:00,86.6,71.1,30.03,SE,133,1.0,3.0,60,0.00,,---,0.00,VWS V14.01,2013-07-09 19:23:00,
2013-07-09 15:28:00,86.5,71.5,30.03,South,175,0.0,3.0,61,0.00,,---,0.00,VWS V14.01,2013-07-09 19:28:00,
2013-07-09 15:33:00,86.6,71.6,30.02,West,277,0.0,0.0,61,0.00,,---,0.00,VWS V14.01,2013-07-09 19:33:00,
2013-07-09 15:38:00,86.9,72.8,30.02,WNW,290,0.0,2.0,63,0.00,,---,0.00,VWS V14.01,2013-07-09 19:38:00,
2013-07-09 15:43:00,87.0,71.9,30.02,SE,129,5.0,6.0,61,0.00,,---,0.00,VWS V14.01,2013-07-09 19:43:00,
2013-07-09 15:48:00,86.5,72.4,30.02,SE,124,0.0,6.0,63,0.00,,---,0.00,VWS V14.01,2013-07-09 19:48:00,
2013-07-09 15:53:00,86.2,71.7,30.02,SSE,161,0.0,6.0,62,0.00,,---,0.00,VWS V14.01,2013-07-09 19:53:00,
2013-07-09 15:58:00,86.1,73.4,30.02,SE,146,0.0,6.0,66,0.00,,---,0.00,VWS V14.01,2013-07-09 19:58:00,
2013-07-09 16:03:00,86.5,73.3,30.01,South,181,0.0,0.0,65,0.00,,---,0.00,VWS V14.01,2013-07-09 20:03:00,
2013-07-09 16:08:00,87.1,72.0,30.01,SSE,150,1.0,1.0,61,0.00,,---,0.00,VWS V14.01,2013-07-09 20:08:00,
2013-07-09 16:13:00,87.2,72.1,30.01,SSE,160,4.0,4.0,61,0.00,,---,0.00,VWS V14.01,2013-07-09 20:13:00,
2013-07-09 16:18:00,87.4,73.3,30.01,SSW,206,0.0,5.0,63,0.00,,---,0.00,VWS V14.01,2013-07-09 20:18:00,
2013-07-09 16:23:00,87.4,73.3,30.01,SE,138,0.0,5.0,63,0.00,,---,0.00,VWS V14.01,2013-07-09 20:23:00,
2013-07-09 16:28:00,87.1,72.5,30.01,ESE,106,0.0,5.0,62,0.00,,---,0.00,VWS V14.01,2013-07-09 20:28:00,
2013-07-09 16:33:00,86.7,71.7,30.00,SE,128,5.0,5.0,61,0.00,,---,0.00,VWS V14.01,2013-07-09 20:33:00,
2013-07-09 16:38:00,86.5,71.5,30.00,SE,140,0.0,5.0,61,0.00,,---,0.00,VWS V14.01,2013-07-09 20:38:00,
2013-07-09 16:43:00,86.3,73.2,30.00,SSW,197,0.0,6.0,65,0.00,,---,0.00,VWS V14.01,2013-07-09 20:43:00,
2013-07-09 16:48:00,86.4,72.3,30.00,SSW,194,5.0,6.0,63,0.00,,---,0.00,VWS V14.01,2013-07-09 20:48:00,
2013-07-09 16:53:00,86.5,71.5,30.00,SE,143,0.0,6.0,61,0.00,,---,0.00,VWS V14.01,2013-07-09 20:53:00,
2013-07-09 16:58:00,86.5,71.5,29.99,SE,134,0.0,6.0,61,0.00,,---,0.00,VWS V14.01,2013-07-09 20:58:00,
2013-07-09 17:03:00,86.8,72.2,29.99,ESE,106,5.0,5.0,62,0.00,,---,0.00,VWS V14.01,2013-07-09 21:03:00,
2013-07-09 17:08:00,86.6,72.5,29.99,SSW,196,1.0,5.0,63,0.00,,---,0.00,VWS V14.01,2013-07-09 21:08:00,
2013-07-09 17:13:00,86.4,71.8,29.99,SSW,200,0.0,5.0,62,0.00,,---,0.00,VWS V14.01,2013-07-09 21:13:00,
2013-07-09 17:18:00,86.5,72.4,29.99,SSE,153,0.0,5.0,63,0.00,,---,0.00,VWS V14.01,2013-07-09 21:18:00,
2013-07-09 17:23:00,86.4,71.4,29.99,SSW,200,0.0,5.0,61,0.00,,---,0.00,VWS V14.01,2013-07-09 21:23:00,
2013-07-09 17:28:00,86.4,72.3,29.99,SW,217,0.0,5.0,63,0.00,,---,0.00,VWS V14.01,2013-07-09 21:28:00,
2013-07-09 17:33:00,86.4,71.4,29.99,SSW,195,0.0,1.0,61,0.00,,---,0.00,VWS V14.01,2013-07-09 21:33:00,
2013-07-09 17:38:00,86.6,70.6,29.99,South,177,0.0,3.0,59,0.00,,---,0.00,VWS V14.01,2013-07-09 21:38:00,
2013-07-09 17:43:00,86.9,71.8,29.99,SE,142,0.0,6.0,61,0.00,,---,0.00,VWS V14.01,2013-07-09 21:43:00,
2013-07-09 17:48:00,87.0,73.8,29.98,South,190,3.0,6.0,65,0.00,,---,0.00,VWS V14.01,2013-07-09 21:48:00,
2013-07-09 17:53:00,87.1,73.0,29.98,SE,127,0.0,6.0,63,0.00,,---,0.00,VWS V14.01,2013-07-09 21:53:00,
2013-07-09 17:58:00,87.1,72.0,29.98,SSW,196,3.0,6.0,61,0.00,,---,0.00,VWS V14.01,2013-07-09 21:58:00,
2013-07-09 18:03:00,86.8,72.2,29.98,South,190,2.0,2.0,62,0.00,,---,0.00,VWS V14.01,2013-07-09 22:03:00,
2013-07-09 18:08:00,86.5,72.4,29.98,ESE,122,0.0,4.0,63,0.00,,---,0.00,VWS V14.01,2013-07-09 22:08:00,
2013-07-09 18:13:00,86.4,72.3,29.98,ESE,123,0.0,4.0,63,0.00,,---,0.00,VWS V14.01,2013-07-09 22:13:00,
2013-07-09 18:18:00,86.4,73.7,29.98,South,173,0.0,4.0,66,0.00,,---,0.00,VWS V14.01,2013-07-09 22:18:00,
2013-07-09 18:23:00,86.4,73.2,29.98,West,260,0.0,4.0,65,0.00,,---,0.00,VWS V14.01,2013-07-09 22:23:00,
2013-07-09 18:28:00,86.6,73.0,29.98,SSE,166,1.0,4.0,64,0.00,,---,0.00,VWS V14.01,2013-07-09 22:28:00,
2013-07-09 18:33:00,86.5,72.9,29.98,South,183,0.0,0.0,64,0.00,,---,0.00,VWS V14.01,2013-07-09 22:33:00,
2013-07-09 18:38:00,86.1,73.0,29.98,SE,125,0.0,2.0,65,0.00,,---,0.00,VWS V14.01,2013-07-09 22:38:00,
2013-07-09 18:43:00,85.7,73.5,29.98,SSE,165,0.0,2.0,67,0.00,,---,0.00,VWS V14.01,2013-07-09 22:43:00,
2013-07-09 18:48:00,85.3,73.6,29.99,SSE,165,0.0,2.0,68,0.00,,---,0.00,VWS V14.01,2013-07-09 22:48:00,
2013-07-09 18:53:00,84.9,74.0,29.99,South,185,0.0,3.0,70,0.00,,---,0.00,VWS V14.01,2013-07-09 22:53:00,
2013-07-09 18:58:00,84.7,73.8,29.99,South,185,0.0,3.0,70,0.00,,---,0.00,VWS V14.01,2013-07-09 22:58:00,
2013-07-09 19:03:00,84.5,74.5,29.99,South,183,0.0,0.0,72,0.00,,---,0.00,VWS V14.01,2013-07-09 23:03:00,
2013-07-09 19:08:00,84.3,74.3,29.99,South,175,0.0,2.0,72,0.00,,---,0.00,VWS V14.01,2013-07-09 23:08:00,
2013-07-09 19:13:00,84.0,74.4,29.99,South,182,1.0,3.0,73,0.00,,---,0.00,VWS V14.01,2013-07-09 23:13:00,
2013-07-09 19:18:00,83.8,74.6,29.99,SSW,197,0.0,4.0,74,0.00,,---,0.00,VWS V14.01,2013-07-09 23:18:00,
2013-07-09 19:23:00,83.6,74.4,29.99,South,173,2.0,4.0,74,0.00,,---,0.00,VWS V14.01,2013-07-09 23:23:00,
2013-07-09 19:28:00,83.5,74.8,29.99,South,180,1.0,4.0,75,0.00,,---,0.00,VWS V14.01,2013-07-09 23:28:00,
2013-07-09 19:33:00,83.4,75.1,29.99,SSW,198,0.0,0.0,76,0.00,,---,0.00,VWS V14.01,2013-07-09 23:33:00,
2013-07-09 19:38:00,83.3,74.9,29.99,SSW,194,0.0,1.0,76,0.00,,---,0.00,VWS V14.01,2013-07-09 23:38:00,
2013-07-09 19:43:00,83.2,75.2,29.99,SSW,194,0.0,1.0,77,0.00,,---,0.00,VWS V14.01,2013-07-09 23:43:00,
2013-07-09 19:48:00,83.0,75.1,29.99,SSW,194,0.0,1.0,77,0.00,,---,0.00,VWS V14.01,2013-07-09 23:48:00,
2013-07-09 19:53:00,82.8,75.6,29.99,SSW,194,0.0,1.0,79,0.00,,---,0.00,VWS V14.01,2013-07-09 23:53:00,
2013-07-09 19:58:00,82.7,75.5,29.99,SSW,194,0.0,1.0,79,0.00,,---,0.00,VWS V14.01,2013-07-09 23:58:00,
2013-07-09 20:03:00,82.4,74.9,29.99,SSW,197,0.0,0.0,78,0.00,,---,0.00,VWS V14.01,2013-07-10 00:03:00,
2013-07-09 20:08:00,82.2,75.0,29.99,SSW,197,0.0,0.0,79,0.00,,---,0.00,VWS V14.01,2013-07-10 00:08:00,
2013-07-09 20:13:00,81.9,74.8,29.99,SSW,197,0.0,0.0,79,0.00,,---,0.00,VWS V14.01,2013-07-10 00:13:00,
2013-07-09 20:18:00,81.6,74.5,30.00,SSW,197,0.0,0.0,79,0.00,,---,0.00,VWS V14.01,2013-07-10 00:18:00,
2013-07-09 20:23:00,81.3,74.9,30.00,SSW,197,0.0,0.0,81,0.00,,---,0.00,VWS V14.01,2013-07-10 00:23:00,
2013-07-09 20:28:00,81.0,74.6,29.99,SSW,197,0.0,0.0,81,0.00,,---,0.00,VWS V14.01,2013-07-10 00:28:00,
2013-07-09 20:33:00,80.8,74.4,29.99,SSW,197,0.0,0.0,81,0.00,,---,0.00,VWS V14.01,2013-07-10 00:33:00,
2013-07-09 20:38:00,80.6,74.6,30.00,SSW,197,0.0,0.0,82,0.00,,---,0.00,VWS V14.01,2013-07-10 00:38:00,
2013-07-09 20:43:00,80.4,74.4,30.00,SSW,197,0.0,0.0,82,0.00,,---,0.00,VWS V14.01,2013-07-10 00:43:00,
2013-07-09 20:48:00,80.2,74.6,30.00,SSW,197,0.0,0.0,83,0.00,,---,0.00,VWS V14.01,2013-07-10 00:48:00,
2013-07-09 20:53:00,80.0,74.4,30.00,SSW,197,0.0,0.0,83,0.00,,---,0.00,VWS V14.01,2013-07-10 00:53:00,
2013-07-09 20:58:00,79.8,74.5,30.00,SSW,197,0.0,0.0,84,0.00,,---,0.00,VWS V14.01,2013-07-10 00:58:00,
2013-07-09 21:03:00,79.6,74.3,30.00,SSW,197,0.0,1.0,84,0.00,,---,0.00,VWS V14.01,2013-07-10 01:03:00,
2013-07-09 21:08:00,79.4,74.2,30.00,South,187,0.0,2.0,84,0.00,,---,0.00,VWS V14.01,2013-07-10 01:08:00,
2013-07-09 21:13:00,79.3,74.4,30.00,South,187,0.0,2.0,85,0.00,,---,0.00,VWS V14.01,2013-07-10 01:13:00,
2013-07-09 21:18:00,79.1,74.2,30.00,South,172,0.0,3.0,85,0.00,,---,0.00,VWS V14.01,2013-07-10 01:18:00,
2013-07-09 21:23:00,79.0,74.1,30.00,South,172,2.0,3.0,85,0.00,,---,0.00,VWS V14.01,2013-07-10 01:23:00,
2013-07-09 21:28:00,78.9,73.7,30.01,South,177,0.0,4.0,84,0.00,,---,0.00,VWS V14.01,2013-07-10 01:28:00,
2013-07-09 21:33:00,78.8,74.3,30.01,South,188,0.0,0.0,86,0.00,,---,0.00,VWS V14.01,2013-07-10 01:33:00,
2013-07-09 21:38:00,78.6,74.1,30.01,South,188,0.0,0.0,86,0.00,,---,0.00,VWS V14.01,2013-07-10 01:38:00,
2013-07-09 21:43:00,78.4,73.9,30.01,South,188,0.0,0.0,86,0.00,,---,0.00,VWS V14.01,2013-07-10 01:43:00,
2013-07-09 21:48:00,78.1,73.9,30.01,South,188,0.0,0.0,87,0.00,,---,0.00,VWS V14.01,2013-07-10 01:48:00,
2013-07-09 21:53:00,77.9,73.4,30.01,South,188,0.0,0.0,86,0.00,,---,0.00,VWS V14.01,2013-07-10 01:53:00,
2013-07-09 21:58:00,77.7,73.5,30.01,South,188,0.0,0.0,87,0.00,,---,0.00,VWS V14.01,2013-07-10 01:58:00,
2013-07-09 22:03:00,77.4,73.6,30.01,South,188,0.0,0.0,88,0.00,,---,0.00,VWS V14.01,2013-07-10 02:03:00,
2013-07-09 22:08:00,77.2,73.4,30.02,South,188,0.0,1.0,88,0.00,,---,0.00,VWS V14.01,2013-07-10 02:08:00,
2013-07-09 22:13:00,77.0,72.8,30.02,South,188,0.0,1.0,87,0.00,,---,0.00,VWS V14.01,2013-07-10 02:13:00,
2013-07-09 22:18:00,76.9,73.1,30.02,South,188,0.0,1.0,88,0.00,,---,0.00,VWS V14.01,2013-07-10 02:18:00,
2013-07-09 22:23:00,76.8,73.0,30.02,South,188,0.0,1.0,88,0.00,,---,0.00,VWS V14.01,2013-07-10 02:23:00,
2013-07-09 22:28:00,76.7,72.9,30.02,South,188,0.0,1.0,88,0.00,,---,0.00,VWS V14.01,2013-07-10 02:28:00,
2013-07-09 22:33:00,76.5,73.0,30.01,South,188,0.0,1.0,89,0.00,,---,0.00,VWS V14.01,2013-07-10 02:33:00,
2013-07-09 22:38:00,76.2,73.1,30.01,South,188,0.0,0.0,90,0.00,,---,0.00,VWS V14.01,2013-07-10 02:38:00,
2013-07-09 22:43:00,75.9,72.8,30.01,South,188,0.0,1.0,90,0.00,,---,0.00,VWS V14.01,2013-07-10 02:43:00,
2013-07-09 22:48:00,75.7,72.9,30.01,South,188,0.0,1.0,91,0.00,,---,0.00,VWS V14.01,2013-07-10 02:48:00,
2013-07-09 22:53:00,75.5,72.7,30.01,South,188,0.0,1.0,91,0.00,,---,0.00,VWS V14.01,2013-07-10 02:53:00,
2013-07-09 22:58:00,75.2,72.7,30.01,South,188,0.0,1.0,92,0.00,,---,0.00,VWS V14.01,2013-07-10 02:58:00,
2013-07-09 23:03:00,75.0,72.5,30.00,South,188,0.0,1.0,92,0.00,,---,0.00,VWS V14.01,2013-07-10 03:03:00,
2013-07-09 23:08:00,74.9,72.1,30.00,South,188,0.0,0.0,91,0.00,,---,0.00,VWS V14.01,2013-07-10 03:08:00,
2013-07-09 23:13:00,74.8,72.3,30.00,South,188,0.0,0.0,92,0.00,,---,0.00,VWS V14.01,2013-07-10 03:13:00,
2013-07-09 23:18:00,74.7,72.2,30.00,South,188,0.0,0.0,92,0.00,,---,0.00,VWS V14.01,2013-07-10 03:18:00,
2013-07-09 23:23:00,74.6,72.1,30.00,South,188,0.0,0.0,92,0.00,,---,0.00,VWS V14.01,2013-07-10 03:23:00,
2013-07-09 23:28:00,74.5,72.3,30.00,South,188,0.0,0.0,93,0.00,,---,0.00,VWS V14.01,2013-07-10 03:28:00,
2013-07-09 23:33:00,74.4,72.2,30.00,South,188,0.0,0.0,93,0.00,,---,0.00,VWS V14.01,2013-07-10 03:33:00,
2013-07-09 23:38:00,74.3,72.2,30.00,South,188,1.0,1.0,93,0.00,,---,0.00,VWS V14.01,2013-07-10 03:38:00,
2013-07-09 23:43:00,74.2,72.1,30.00,South,185,0.0,1.0,93,0.00,,---,0.00,VWS V14.01,2013-07-10 03:43:00,
2013-07-09 23:48:00,74.1,71.9,30.00,South,185,0.0,1.0,93,0.00,,---,0.00,VWS V14.01,2013-07-10 03:48:00,
2013-07-09 23:53:00,74.0,71.8,30.01,SSW,196,0.0,1.0,93,0.00,,---,0.00,VWS V14.01,2013-07-10 03:53:00,
2013-07-09 23:58:00,73.9,71.8,30.00,SSW,196,0.0,1.0,93,0.00,,---,0.00,VWS V14.01,2013-07-10 03:58:00,